This demonstration page uses our WeatherBlox Daily Observations layout. Learn more.

Hourly Observations for April 29, 2016

Temp ( °F °C ) Dew Point ( °F °C ) Humidity (%) Winds ( mph kmh ) Pressure ( in mb ) Visibility ( mi km ) Precip ( " mm )
12:15 am 00:15 Cloudy 45 7 41 5 87 87 ENE 3 6 30.18 1022 10 16.0934 0 0
12:35 am 00:35 Cloudy 44 6.8 41 5 88 88 ENE 3 6 30.18 1022 10 16.0934 0 0
12:55 am 00:55 Cloudy 44 6.7 40 4.7 87 87 ENE 5 7 30.18 1022 10 16.0934 0 0
1:15 am 01:15 Cloudy 44 6.7 40 4.5 86 86 NE 5 7 30.18 1022 10 16.0934 0 0
1:35 am 01:35 Cloudy 44 6.6 40 4.5 87 87 NE 6 9 30.18 1022 10 16.0934 0 0
1:55 am 01:55 Cloudy 44 6.5 40 4.6 88 88 NE 5 7 30.18 1022 10 16.0934 0 0
2:15 am 02:15 Cloudy 44 6.5 41 4.8 89 89 NE 7 11 30.18 1022 10 16.0934 0 0
2:35 am 02:35 Cloudy 44 6.5 41 5 90 90 NE 5 7 30.18 1022 10 16.0934 0 0
2:55 am 02:55 Cloudy 44 6.5 41 5 90 90 NNE 9 15 30.15 1021 10 16.0934 0 0
3:15 am 03:15 Cloudy 43 6.2 40 4.5 89 89 NE 7 11 30.15 1021 10 16.0934 0 0
3:35 am 03:35 Cloudy 43 6 40 4.6 91 91 ENE 6 9 30.15 1021 10 16.0934 0 0
3:55 am 03:55 Cloudy 42 5.8 41 4.8 93 93 NE 7 11 30.15 1021 7 11.26538 0 0
4:15 am 04:15 Cloudy 42 5.7 40 4.7 93 93 ENE 6 9 30.15 1021 10 16.0934 0 0
4:35 am 04:35 Cloudy 42 5.7 40 4.6 93 93 ENE 6 9 30.15 1021 10 16.0934 0 0
4:55 am 04:55 Cloudy 42 5.6 40 4.5 93 93 NE 5 7 30.15 1021 10 16.0934 0 0
5:15 am 05:15 Partly Cloudy 42 5.3 40 4.2 93 93 NNE 3 6 30.15 1021 10 16.0934 0 0
5:35 am 05:35 Partly Cloudy 41 5.1 39 4 93 93 NNE 3 6 30.15 1021 10 16.0934 0 0
5:55 am 05:55 Partly Cloudy 41 5.1 39 4 93 93 NNE 3 6 30.12 1020 10 16.0934 0 0
6:15 am 06:15 Clear 41 5 39 4 93 93 Calm 30.15 1021 10 16.0934 0 0
6:35 am 06:35 Partly Cloudy 41 5 39 4 93 93 NNE 3 6 30.12 1020 10 16.0934 0 0
6:55 am 06:55 Mostly Cloudy 41 5.1 39 4.1 93 93 NNE 8 13 30.09 1019 10 16.0934 0 0
7:15 am 07:15 Partly Cloudy 41 5 39 3.8 92 92 NNE 9 15 30.09 1019 10 16.0934 0 0
7:35 am 07:35 Sunny 41 4.9 38 3.5 91 91 NNE 13 20 30.09 1019 10 16.0934 0 0
7:55 am 07:55 Sunny 41 5 38 3.6 91 91 NNE 14 22 30.09 1019 10 16.0934 0 0
8:15 am 08:15 Sunny 41 5 38 3.5 90 90 NE 10 17 30.09 1019 10 16.0934 0 0
8:35 am 08:35 Sunny 41 5.2 38 3.3 88 88 NNE 9 15 30.09 1019 10 16.0934 0 0
8:55 am 08:55 Sunny 42 5.8 38 3.3 84 84 NNE 10 17 30.09 1019 10 16.0934 0 0
9:15 am 09:15 Partly Cloudy 43 6 38 3.2 82 82 NE 13 20 30.09 1019 10 16.0934 0 0
9:35 am 09:35 Mostly Cloudy 43 6 37 3 81 81 NE 13 20 30.09 1019 10 16.0934 0 0
9:55 am 09:55 Cloudy 43 6 38 3.2 82 82 NE 14 22 30.12 1020 10 16.0934 0 0
10:15 am 10:15 Cloudy 43 6.1 38 3.1 81 81 NE 14 22 30.12 1020 10 16.0934 0 0
10:35 am 10:35 Cloudy 43 6.1 38 3.2 82 82 ENE 14 22 30.12 1020 10 16.0934 0 0
10:55 am 10:55 Cloudy 43 6.1 38 3.2 82 82 NE 15 24 30.12 1020 10 16.0934 0 0
11:15 am 11:15 Cloudy 43 6 38 3.1 82 82 ENE 16 26 30.12 1020 10 16.0934 0 0
11:35 am 11:35 Cloudy 43 5.9 38 3.1 82 82 ENE 15 24 30.12 1020 10 16.0934 0 0
11:55 am 11:55 Cloudy 43 6 37 3 81 81 ENE 16 26 30.12 1020 10 16.0934 0 0
12:15 pm 12:15 Cloudy 43 6 37 2.9 81 81 ENE 13 20 30.09 1019 10 16.0934 0 0
12:35 pm 12:35 Cloudy 43 6.1 38 3.3 82 82 NE 14 22 30.09 1019 10 16.0934 0 0
12:55 pm 12:55 Cloudy 43 6 38 3.5 84 84 NE 15 24 30.09 1019 10 16.0934 0 0
1:15 pm 13:15 Cloudy 43 6 38 3.4 84 84 ENE 15 24 30.03 1017 10 16.0934 0 0
1:35 pm 13:35 Cloudy 43 5.9 38 3.2 83 83 NE 14 22 30.06 1018 10 16.0934 0 0
1:55 pm 13:55 Cloudy 43 6 39 3.7 85 85 NE 13 20 30.03 1017 10 16.0934 0 0
2:15 pm 14:15 Cloudy 43 6 38 3.5 84 84 NE 17 28 30.03 1017 10 16.0934 0 0
2:35 pm 14:35 Cloudy 43 6 38 3.4 84 84 NE 13 20 30.03 1017 10 16.0934 0 0
2:55 pm 14:55 Cloudy 44 6.5 38 3.5 81 81 ENE 14 22 30.03 1017 10 16.0934 0 0
3:15 pm 15:15 Cloudy 44 6.5 39 3.8 83 83 ENE 14 22 30.03 1017 10 16.0934 0 0
3:35 pm 15:35 Cloudy 43 6.1 39 4 87 87 ENE 20 31 30 1016 10 16.0934 0 0
3:55 pm 15:55 Cloudy 43 6.1 39 4.1 87 87 ENE 26 43 29.94 1014 10 16.0934 0 0
4:15 pm 16:15 Cloudy 43 6.1 39 4.1 87 87 ENE 29 46 29.88 1012 10 16.0934 0 0
4:35 pm 16:35 Cloudy 43 6.3 40 4.2 87 87 ENE 21 33 29.94 1014 10 16.0934 0 0
4:55 pm 16:55 Cloudy 43 6.2 40 4.2 87 87 ENE 23 37 29.91 1013 10 16.0934 0 0
5:15 pm 17:15 Cloudy 43 6.2 40 4.2 87 87 ENE 18 30 29.91 1013 10 16.0934 0 0
5:35 pm 17:35 Cloudy 43 6.3 40 4.2 87 87 ENE 24 39 29.91 1013 10 16.0934 0 0
5:55 pm 17:55 Cloudy 43 6 40 4.2 88 88 ENE 23 37 29.91 1013 10 16.0934 0 0
6:15 pm 18:15 Cloudy 43 6 39 4 87 87 ENE 22 35 29.91 1013 10 16.0934 0 0
6:35 pm 18:35 Cloudy 43 6 39 4.1 88 88 ENE 22 35 29.91 1013 10 16.0934 0 0
6:55 pm 18:55 Cloudy 42 5.7 39 4 89 89 ENE 22 35 29.91 1013 10 16.0934 0 0
7:15 pm 19:15 Cloudy 42 5.5 39 4 90 90 NE 21 33 29.88 1012 7 11.26538 0 0
7:35 pm 19:35 Cloudy with Nearby Thunderstorms 42 5.4 39 4 91 91 NE 21 33 29.88 1012 7 11.26538 0 0
7:55 pm 19:55 Cloudy 41 5.1 39 4 93 93 NE 26 43 29.85 1011 7 11.26538 0 0
8:15 pm 20:15 Cloudy 41 5.2 39 4.1 93 93 NE 26 43 29.85 1011 7 11.26538 0 0
8:35 pm 20:35 Cloudy 41 5.2 39 4.1 93 93 NE 26 43 29.85 1011 7 11.26538 0 0
8:55 pm 20:55 Cloudy with Mist and Fog 41 5 39 4 93 93 NE 26 43 29.85 1011 1.75 2.816345 0 0
9:15 pm 21:15 Cloudy 41 4.8 39 4.1 95 95 NE 23 37 29.85 1011 7 11.26538 0 0
9:35 pm 21:35 Cloudy with Light Rain 41 4.8 39 4 95 95 NE 30 48 29.85 1011 7 11.26538 0 0
9:55 pm 21:55 Cloudy with Rain 41 4.8 39 4 95 95 NE 29 46 29.85 1011 3 4.82802 0.05 1.27
10:15 pm 22:15 Cloudy with Rain 41 5 39 4.1 94 94 NE 23 37 29.85 1011 3 4.82802 0.06 1.524
10:35 pm 22:35 Cloudy with Heavy Rain 41 5 40 4.2 95 95 ENE 12 19 29.91 1013 3 4.82802 0.16 4.064
10:55 pm 22:55 Cloudy with Light Rain 41 5.1 40 4.3 95 95 ENE 3 6 29.91 1013 1.5 2.41401 0.35 8.89
11:15 pm 23:15 Cloudy with Rain 41 5.1 40 4.3 95 95 Calm 29.91 1013 5 8.0467 0.04 1.016
11:35 pm 23:35 Cloudy with Rain 41 5 40 4.3 95 95 NE 3 6 29.88 1012 4 6.43736 0.1 2.54
11:55 pm 23:55 Cloudy with Light Rain 41 5.1 40 4.5 96 96 NNE 6 9 29.88 1012 5 8.0467 0.13 3.302

Powered by AerisWeather